Weather History for Plainview, TX

Change the Weather History Date:

Sunday, November 11, 2012

  Actual Average Record
Temperature  
Mean Temperature 42 °F -  
Max Temperature 53 °F 62 °F 83 °F (1927)
Min Temperature 30 °F 35 °F 16 °F (1950)
Degree Days  
Heating Degree Days 24    
Moisture  
Dew Point 17 °F    
Average Humidity 35    
Maximum Humidity 69    
Minimum Humidity 11    
Precipitation  
Precipitation 0.00 in - - ()
Sea Level Pressure  
Sea Level Pressure 30.01 in    
Wind  
Wind Speed 12 mph (WNW)    
Max Wind Speed 26 mph    
Max Gust Speed 33 mph    
Visibility 10 miles    
Events      
Averages and records for this station are not official NWS values.
T = Trace of Precipitation, MM = Missing Value Source: NWS Daily Summary

Daily Weather History Graph

Daily Weather History Graph

Search for Another Location

Airport:

Trip Planner

Search our weather history database for the weather conditions in past years. The results will help you decide how hot, cold, wet, or windy it might be!

Date:

Astronomy

Nov. 11, 2012 Rise Set
Actual Time 7:16 AM CST 5:45 PM CST
Civil Twilight 6:49 AM CST 6:11 PM CST
Nautical Twilight 6:19 AM CST 6:41 PM CST
Astronomical Twilight 5:50 AM CST 7:11 PM CST
Moon 4:38 AM CST (11/11) 4:05 PM CST (11/11)
Length of Visible Light 11h 21m
Length of Day
10h 28m
Waning Crescent, 7% of the Moon is Illuminated
Nov 11
Waning Crescent
Nov 13
New
Nov 20
First Quarter
Nov 28
Full
Dec 6
Last Quarter

Hourly Weather History & Observations

Time (CST) Temp. Windchill Dew Point Humidity Pressure Visibility Wind Dir Wind Speed Gust Speed Precip Events Conditions
12:15 AM 53.6 °F - 33.8 °F 47% 29.80 in 10.0 mi NW 5.8 mph - N/A   Overcast
12:35 AM 53.6 °F - 35.6 °F 51% 29.81 in 10.0 mi West 3.5 mph - N/A   Overcast
12:55 AM 53.6 °F - 32.0 °F 44% 29.82 in 10.0 mi WNW 6.9 mph - N/A   Overcast
1:15 AM 53.6 °F - 32.0 °F 44% 29.80 in 10.0 mi WNW 8.1 mph - N/A   Overcast
1:35 AM 53.6 °F - 30.2 °F 41% 29.81 in 10.0 mi WNW 11.5 mph - N/A   Mostly Cloudy
1:55 AM 51.8 °F - 30.2 °F 44% 29.82 in 10.0 mi WNW 10.4 mph - N/A   Scattered Clouds
2:15 AM 51.8 °F - 28.4 °F 41% 29.83 in 10.0 mi WNW 10.4 mph - N/A   Mostly Cloudy
2:35 AM 51.8 °F - 24.8 °F 35% 29.83 in 10.0 mi NW 11.5 mph - N/A   Mostly Cloudy
2:55 AM 51.8 °F - 21.2 °F 30% 29.83 in 10.0 mi NW 16.1 mph 19.6 mph N/A   Mostly Cloudy
3:15 AM 50.0 °F - 21.2 °F 32% 29.84 in 10.0 mi WNW 13.8 mph - N/A   Overcast
3:35 AM 50.0 °F - 19.4 °F 30% 29.84 in 10.0 mi NW 13.8 mph - N/A   Overcast
3:55 AM 50.0 °F - 17.6 °F 28% 29.84 in 10.0 mi WNW 12.7 mph 19.6 mph N/A   Mostly Cloudy
4:15 AM 50.0 °F - 17.6 °F 28% 29.84 in 10.0 mi NW 13.8 mph 19.6 mph N/A   Mostly Cloudy
4:35 AM 50.0 °F - 17.6 °F 28% 29.84 in 10.0 mi NW 16.1 mph - N/A   Overcast
4:55 AM 50.0 °F - 17.6 °F 28% 29.85 in 10.0 mi NW 18.4 mph 23.0 mph N/A   Overcast
5:15 AM 50.0 °F - 17.6 °F 28% 29.86 in 10.0 mi WNW 17.3 mph 23.0 mph N/A   Mostly Cloudy
5:35 AM 50.0 °F - 19.4 °F 30% 29.87 in 10.0 mi WNW 13.8 mph 20.7 mph N/A   Overcast
5:55 AM 46.4 °F 40.4 °F 17.6 °F 32% 29.88 in 10.0 mi WNW 13.8 mph - N/A   Overcast
6:15 AM 46.4 °F 41.1 °F 17.6 °F 32% 29.89 in 10.0 mi WNW 11.5 mph - N/A   Mostly Cloudy
6:35 AM 42.8 °F 37.0 °F 15.8 °F 34% 29.90 in 10.0 mi WNW 10.4 mph - N/A   Scattered Clouds
6:55 AM 41.0 °F 36.4 °F 17.6 °F 39% 29.90 in 10.0 mi WNW 6.9 mph - N/A   Scattered Clouds
7:35 AM 39.2 °F 34.2 °F 17.6 °F 42% 29.93 in 10.0 mi West 6.9 mph - N/A   Scattered Clouds
8:15 AM 39.2 °F 35.9 °F 19.4 °F 45% 29.94 in 10.0 mi WSW 4.6 mph - N/A   Scattered Clouds
8:35 AM 42.8 °F 37.5 °F 19.4 °F 39% 29.95 in 10.0 mi West 9.2 mph - N/A   Clear
8:55 AM 46.4 °F 41.5 °F 21.2 °F 37% 29.95 in 10.0 mi WSW 10.4 mph - N/A   Clear
9:35 AM 50.0 °F - 21.2 °F 32% 29.97 in 10.0 mi West 26.5 mph 32.2 mph N/A   Clear
9:55 AM 50.0 °F - 23.0 °F 35% 29.97 in 10.0 mi West 25.3 mph 29.9 mph N/A   Clear
10:15 AM 50.0 °F - 23.0 °F 35% 29.98 in 10.0 mi West 24.2 mph 32.2 mph N/A   Clear
10:35 AM 50.0 °F - 21.2 °F 32% 29.98 in 10.0 mi West 24.2 mph 32.2 mph N/A   Clear
11:35 AM 51.8 °F - 19.4 °F 28% 29.99 in 10.0 mi West 21.9 mph 31.1 mph N/A   Clear
11:55 AM 51.8 °F - 19.4 °F 28% 29.99 in 10.0 mi West 26.5 mph 33.4 mph N/A   Clear
12:15 PM 53.6 °F - 19.4 °F 26% 29.99 in 10.0 mi West 20.7 mph 28.8 mph N/A   Clear
12:35 PM 53.6 °F - 17.6 °F 24% 29.99 in 10.0 mi West 24.2 mph 33.4 mph N/A   Clear
12:55 PM 53.6 °F - 19.4 °F 26% 29.98 in 10.0 mi West 23.0 mph 29.9 mph N/A   Clear
1:15 PM 53.6 °F - 17.6 °F 24% 29.98 in 10.0 mi West 21.9 mph 29.9 mph N/A   Clear
1:35 PM 53.6 °F - 12.2 °F 19% 29.98 in 10.0 mi West 23.0 mph 31.1 mph N/A   Scattered Clouds
1:55 PM 53.6 °F - 8.6 °F 16% 29.98 in 10.0 mi WNW 26.5 mph 32.2 mph N/A   Mostly Cloudy
2:15 PM 53.6 °F - 5.0 °F 14% 29.99 in 10.0 mi West 24.2 mph 31.1 mph N/A   Scattered Clouds
2:35 PM 53.6 °F - 3.2 °F 13% 29.99 in 10.0 mi West 25.3 mph 31.1 mph N/A   Clear
2:55 PM 53.6 °F - 3.2 °F 13% 30.00 in 10.0 mi WNW 20.7 mph 29.9 mph N/A   Clear
3:15 PM 53.6 °F - -0.4 °F 11% 30.01 in 10.0 mi WNW 21.9 mph 28.8 mph N/A   Clear
3:35 PM 53.6 °F - -0.4 °F 11% 30.02 in 10.0 mi West 23.0 mph 28.8 mph N/A   Clear
3:55 PM 53.6 °F - -0.4 °F 11% 30.02 in 10.0 mi West 17.3 mph 23.0 mph N/A   Clear
4:15 PM 51.8 °F - -0.4 °F 12% 30.04 in 10.0 mi West 16.1 mph 23.0 mph N/A   Clear
4:35 PM 51.8 °F - -0.4 °F 12% 30.05 in 10.0 mi West 24.2 mph 28.8 mph N/A   Clear
4:55 PM 51.8 °F - -0.4 °F 12% 30.06 in 10.0 mi WNW 18.4 mph - N/A   Clear
5:15 PM 50.0 °F - -2.2 °F 12% 30.06 in 10.0 mi West 11.5 mph - N/A   Clear
5:35 PM 50.0 °F - -4.0 °F 11% 30.07 in 10.0 mi West 13.8 mph - N/A   Clear
5:55 PM 50.0 °F - -2.2 °F 12% 30.09 in 10.0 mi West 12.7 mph - N/A   Clear
6:15 PM 46.4 °F 41.9 °F -0.4 °F 14% 30.10 in 10.0 mi WNW 9.2 mph - N/A   Clear
6:35 PM 42.8 °F 38.0 °F 15.8 °F 34% 30.12 in 10.0 mi NE 8.1 mph - N/A   Clear
6:55 PM 42.8 °F 39.3 °F 19.4 °F 39% 30.13 in 10.0 mi East 5.8 mph - N/A   Clear
7:15 PM 39.2 °F 37.0 °F 19.4 °F 45% 30.15 in 10.0 mi North 3.5 mph - N/A   Clear
7:35 PM 39.2 °F 35.0 °F 19.4 °F 45% 30.16 in 10.0 mi ENE 5.8 mph - N/A   Clear
7:55 PM 39.2 °F 35.0 °F 21.2 °F 49% 30.17 in 10.0 mi East 5.8 mph - N/A   Clear
8:15 PM 37.4 °F 32.1 °F 21.2 °F 52% 30.18 in 10.0 mi East 6.9 mph - N/A   Clear
8:35 PM 35.6 °F 28.6 °F 21.2 °F 56% 30.19 in 10.0 mi East 9.2 mph - N/A   Clear
8:55 PM 33.8 °F 27.0 °F 21.2 °F 60% 30.21 in 10.0 mi East 8.1 mph - N/A   Clear
9:15 PM 35.6 °F 29.2 °F 21.2 °F 56% 30.22 in 10.0 mi East 8.1 mph - N/A   Clear
9:35 PM 35.6 °F 29.9 °F 21.2 °F 56% 30.24 in 10.0 mi NE 6.9 mph - N/A   Clear
9:55 PM 33.8 °F 28.6 °F 21.2 °F 60% 30.24 in 10.0 mi East 5.8 mph - N/A   Clear
10:15 PM 33.8 °F 27.7 °F 21.2 °F 60% 30.25 in 10.0 mi East 6.9 mph - N/A   Clear
10:35 PM 33.8 °F 28.6 °F 23.0 °F 65% 30.25 in 10.0 mi East 5.8 mph - N/A   Clear
10:55 PM 32.0 °F 27.5 °F 21.2 °F 64% 30.26 in 10.0 mi East 4.6 mph - N/A   Clear
11:15 PM 30.2 °F 25.4 °F 19.4 °F 64% 30.27 in 10.0 mi East 4.6 mph - N/A   Clear
11:35 PM 32.0 °F 28.7 °F 21.2 °F 64% 30.28 in 10.0 mi ENE 3.5 mph - N/A   Clear
11:55 PM 30.2 °F 26.7 °F 21.2 °F 69% 30.28 in 10.0 mi East 3.5 mph - N/A   Clear